Regional Weather Roundup
Issued by NWS

Home | Current Version | Previous Version | Text Only | Print | Product List | Glossary On
Versions: 1 2 3 4 5 6 7 8 9 10 11 12 13 14 15 16 17 18 19 20 21 22 23 24 25 26 27 28 29 30 31 32 33 34 35 36 37 38 39 40 41 42 43 44 45 46 47 48 49 50
000
ASUS45 KABQ 230310
RWRNM
WEATHER ROUNDUP FOR NEW MEXICO
NATIONAL WEATHER SERVICE ALBUQUERQUE NM
800 PM MST MON DEC 22 2014

NOTE: "FAIR" MEANS FEW OR NO CLOUDS BELOW 12,000 FEET AGL WITH NO
       SIGNIFICANT WEATHER OR OBSTRUCTIONS TO VISION.

      THIS PRODUCT IS RELEASED AS TWO VERSIONS.  ONE VERSION NEAR
      THE TOP OF THE HOUR CONTAINING PRELIMINARY DATA FROM ALBUQUERQUE
      AND OTHER STATIONS.  A FINAL VERSION WITH ADDITIONAL DATA IS
      ISSUED ABOUT 10 MINUTES AFTER THE HOUR.

NMZ501-503-504-510>518-230400-
NORTHWEST PLATEAU/NORTHCENTRAL MOUNTAINS

CITY           SKY/WX    TMP DP  RH WIND       PRES   REMARKS
FARMINGTON     MOCLDY    39  24  55 NW12      29.80R WCI  32
LOS ALAMOS     LGT SNOW  29  29 100 E7        29.78R VSB 1   WCI  22
SANTA FE       LGT SNOW  32  29  88 N12       29.77R FOG     WCI  23
TAOS           MOCLDY    25  19  80 N7        29.76R WCI  17
ANGEL FIRE     FAIR      25  11  57 NW9       29.75R WCI  15

$$
NMZ402-403-502-505>509-230400-
WESTCENTRAL MOUNTAINS/SOUTHWEST MOUNTAINS

CITY           SKY/WX    TMP DP  RH WIND       PRES   REMARKS
GALLUP         LGT RAIN  39  32  76 NW9       29.88S WCI  33
GRANTS         CLEAR     40  30  68 NW21G38   29.83R WCI  30
SILVER CITY    CLEAR     45  34  65 NW14      29.87F

$$
NMZ407-409-411-412-230400-
SOUTHERN DESERTS

CITY           SKY/WX    TMP DP  RH WIND       PRES   REMARKS
LORDSBURG      FAIR      50  36  57 W8        29.89R
DEMING         CLEAR     52  35  52 W13       29.85R
LAS CRUCES     CLEAR     53  35  49 W20G26    29.80R
HOLLOMAN AFB   CLOUDY    55  31  40 N9        29.70S
ALAMOGORDO     CLOUDY    55  30  38 N9        29.72S
T OR C         CLEAR     57  28  33 NW8       29.77S

$$
NMZ519>523-230400-
CENTRAL VALLEYS/CENTRAL HIGHLANDS

CITY           SKY/WX    TMP DP  RH WIND       PRES   REMARKS
ALBUQUERQUE    MOCLDY    45  31  58 N8        29.77R
DOUBLE EAGLE     N/A     43  28  56 NW23G31   29.76R
MORIARTY ARPT  LGT RAIN  40  32  71 NW29G36   29.76R WCI  29
CLINES CORNERS LGT SNOW  27  25  92 E12G21    29.75R FOG     WCI  17
BELEN          FAIR      47  31  55 NW18G25   29.76R
SOCORRO        FAIR      50  35  57 N6        29.76F

$$
NMZ524>526-539-540-230400-
SOUTHCENTRAL MOUNTAINS

CITY           SKY/WX    TMP DP  RH WIND       PRES   REMARKS
RUIDOSO        RAIN      39  34  81 NW15G26   29.78S WCI  31

$$
NMZ527>531-230400-
NORTHEAST HIGHLANDS/NORTHEAST PLAINS

CITY           SKY/WX    TMP DP  RH WIND       PRES   REMARKS
LAS VEGAS      CLOUDY    25  23  92 S3        29.77F
RATON          LGT SNOW  29  28  96 CALM      29.77R VSB 3/4
CLAYTON        PTCLDY    28  25  88 W10       29.76R WCI  19

$$
NMZ532>537-230400-
EASTCENTRAL PLAINS

CITY           SKY/WX    TMP DP  RH WIND       PRES   REMARKS
TUCUMCARI      CLOUDY    33  32  96 S3        29.76F
CANNON AFB     NOT AVBL
CLOVIS AIRPORT CLOUDY    34  30  86 NE13      29.77S WCI  25

$$
NMZ028-029-538-230400-
SOUTHEAST PLAINS

CITY           SKY/WX    TMP DP  RH WIND       PRES   REMARKS
ROSWELL        MOCLDY    55  39  54 N13       29.68R
ARTESIA        DRIZZLE   52  41  66 NE18G31   29.70R
CARLSBAD       CLOUDY    64  32  30 W21       29.62R
HOBBS          LGT RAIN  46  36  66 N21       29.77R


$$


USA.gov is the U.S. government's official web portal to all federal, state and local government web resources and services.